Piney View, WV (25906)

9:09 AM EST on February 11, 2016 (GMT -0500)
Raleigh County Memorial | | Change Station
CLOSE
Current Station
Airport
Location: Beckley,
Elevation: 2513 ft
Nearby Weather Stations

Elev 2513 ft 37.79 °N, 81.12 °W | Updated 18 minutes ago

Overcast
Overcast
11 °F
Feels Like -2 °F
N
9
Wind Variable Wind from NNW

Today
High -- | Low -- °F
--% Chance of Precip.
Yesterday
High -- | Low -- °F
Precip. -- in
Pressure 30.25 in
Visibility 1.8 miles
Clouds Mostly Cloudy 1800 ft
Overcast 2400 ft
Windchill -2 °F
Dew Point 5 °F
Humidity 77%
Rainfall 0.00 in
Snow Depth Not available.
7:19 AM 5:58 PM
Waxing Crescent, 12% visible
METAR KBKW 111351Z AUTO 33008KT 1 3/4SM -SN BKN018 OVC024 M12/M15 A3007 RMK AO2 SNB04 SLP244 P0000 T11171150
Pressure 30.25 in
Visibility 1.8 miles
Clouds Mostly Cloudy 1800 ft
Overcast 2400 ft
Windchill -2 °F
Dew Point 5 °F
Humidity 77%
Rainfall 0.00 in
Snow Depth Not available.
7:19 AM 5:58 PM
Waxing Crescent, 12% visible
METAR KBKW 111351Z AUTO 33008KT 1 3/4SM -SN BKN018 OVC024 M12/M15 A3007 RMK AO2 SNB04 SLP244 P0000 T11171150

10-Day Weather Forecast

Almanac

Astronomy

Feb. 11, 2016 Rise Set
Actual Time
Civil Twilight
Nautical Twilight
Astronomical Twilight
Moon
Length of Visible Light
Length of Day
Tomorrow will be .
, % of the Moon is Illuminated

Today's Extremes

State Highs State Lows

Community

WunderPhotos

Upload Photos

1,892,047 photos uploaded!

WunderBlog® & News

Nearby

Air Quality

  Air Quality AQ Index Pollutant
Not available.

Snow Depth

Station Depth Elevation

Earthquake Activity

City Distance Mag. Time & Date
Minimum magnitude displayed is 2.5.

Coastal Water Temperatures

Place Temperature

Stations

Nearby Weather Stations

Station Location Temp. Windchill Dew Point Humidity Wind Precip. Elev Updated Type
                   

Watches & Warnings

There are currently no watches in effect.